SES-10

Last updated on Tue Sep 16 2025 00:02:49 GMT+0000 (Coordinated Universal Time)

1 42432U 17017A 25258.57131589 -.00000289 00000+0 00000+0 0 9990 2 42432 0.0035 204.2794 0002461 341.9036 307.3735 1.00270461 30992
UTC large
Height (km)
Speed (km/s)
/
Latitude / Longitude
Inclination (degrees)
Orbital Period (minutes)
Azimuth
Elevation
Range (km)
Doppler Factor

Next 0 passes for location: London (51.5072 / 0.1276)

Sorry there are no passes over London.